Vertical_Velocity
-0 -1 0 1 0 2 -1 3 5 6 3 5 1 6 3 7 1 2 0 -2 0 -1 -4 -1 1 -1 -2 -0 -1 -1 1 -1 2 2 3 1 1 -1 -2 -1 -2 1 1
-1 -3 -1 -1 -0 0 0 1 2 3 -4 2 2 -2 0 -1 1 0 1 2 -1 -2 -3 -1 -0 0 -1 1 2 -0 -0 1 4 0 -1 -5 0 -0 1 1 5 2 1
-1 0 -0 -0 0 1 2 2 3 3 2 2 1 1 -1 -2 -1 0 -5 -1 3 4 -1 -3 -3 0 -2 1 3 3 -0 -2 -2 3 2 -3 -6 4 3 0 1 3 3
-1 -2 -1 0 1 0 -0 -0 1 1 1 2 -1 -2 -3 -3 5 0 1 -0 1 3 5 2 -0 1 1 0 3 1 2 1 1 -2 -1 -0 9 -1 -6 -7 -1 4 2
-2 -1 -2 -2 -2 -1 -1 -0 1 -0 -1 -1 -1 -1 -0 4 4 2 5 6 2 4 6 6 4 -1 2 6 3 3 1 -2 -2 0 0 -3 1 1 -1 -10 6 -3 5
-4 -3 -3 -2 -2 -1 -0 1 3 3 4 5 7 6 5 7 3 6 -1 1 1 -1 -0 4 3 4 0 -1 2 -3 -5 -4 -4 -3 -1 -3 2 -1 1 -3 3 3 4
-1 -1 1 1 1 -1 -0 -0 -1 -0 -0 -0 -1 -1 -0 -1 -0 2 1 1 -1 1 2 0 5 2 -0 1 2 1 2 5 -1 4 -1 0 -3 5 -8 -5 -3 -8 2
-2 -2 -1 -1 -0 0 -1 -1 -1 -1 1 3 4 3 2 3 1 -0 -1 7 4 1 -0 -1 3 5 4 3 2 -1 -0 4 -3 1 -2 0 -4 3 5 -0 -0 -7 0
2 3 2 1 -2 -3 -1 2 3 3 1 -0 -1 -0 0 1 2 2 3 0 -3 3 4 2 2 2 6 7 3 -0 -2 5 1 1 6 -2 4 -3 3 2 0 2 -3
-3 -4 -5 -4 -3 -2 -3 -3 -3 -3 -1 0 1 1 2 2 3 1 3 2 1 1 3 3 0 4 2 7 7 2 -2 3 -3 1 -1 3 5 3 -2 2 4 4 -1
-3 -2 -5 -3 0 -0 1 -0 2 0 -2 0 2 1 1 2 4 3 3 3 6 4 6 4 5 5 2 5 1 0 1 1 8 3 -0 -1 10 4 -3 5 3 1 2
4 -2 -4 -1 -2 -1 -2 -1 -3 -3 -0 -0 2 0 1 0 -2 2 6 8 1 -0 2 4 5 6 7 8 6 4 6 3 3 4 4 -1 7 2 12 -6 1 -2 -0
2 -2 -3 -3 -3 -4 -3 -2 -3 -4 -2 -4 -6 -3 -2 2 -1 -2 -4 -0 -0 2 3 3 1 6 8 8 8 4 -1 2 4 1 6 -4 5 -4 2 11 -10 -1 4
-5 -4 0 -2 -1 -2 -7 -4 -4 -4 -6 -3 -4 -10 -3 -2 -2 -5 -3 -1 1 0 -1 1 0 2 0 0 3 2 2 9 4 3 6 3 1 2 8 5 -0 -7 0
2 3 2 2 1 -1 -5 -3 -3 3 1 3 -1 -5 -3 -1 -4 -8 -6 0 1 3 1 -2 -2 0 -1 -0 2 5 3 1 0 5 4 -6 4 -17 11 8 -8 -2 -5
-2 -3 -2 -3 -4 -3 -1 2 -1 -2 1 -0 1 -0 -2 -3 -3 -1 -2 -2 -3 -3 -4 -2 -2 1 1 3 6 8 -1 1 2 -7 -0 5 5 16 12 8 5 3 9
-2 -2 -4 -5 -3 -3 -4 3 4 3 -0 1 -1 -1 -1 -0 0 1 -1 -3 -6 -5 -3 -1 1 1 1 3 3 6 -6 -8 -1 -5 0 3 -6 -4 -7 14 21 19 3
4 2 2 1 7 4 5 2 -1 -1 -2 -2 -6 -3 3 -3 0 -3 -2 1 2 2 -0 0 1 -4 2 1 3 1 -2 -1 2 0 2 2 1 3 5 14 7 10 12
3 3 3 5 3 0 -0 -0 -2 -5 -2 -5 -1 2 -3 -3 -1 -2 -1 1 -4 -3 -1 -0 -2 -5 -2 1 6 1 -3 -2 -3 2 0 -0 -2 13 11 5 -7 0 -4
5 7 2 -1 -5 -3 -5 -3 -1 1 -1 -2 -3 -0 -1 -3 -2 -4 -6 -5 -3 -5 -2 -2 -1 0 -3 5 3 7 -9 -7 -10 -2 0 6 5 6 3 6 3 8 2
-4 -6 -4 -3 -4 -1 0 1 -2 -4 -2 -1 -3 -4 -0 -5 -2 -6 -1 -6 -4 -4 -5 -1 1 1 1 0 3 4 -5 -3 -8 -13 -3 2 3 -1 5 10 -8 9 3
1 3 3 2 -1 -3 -6 -5 -2 -2 -5 -4 -1 -3 -2 -1 -4 -7 -3 -2 -1 -2 1 -0 -4 -1 3 4 0 -2 4 0 -6 -5 1 -2 -9 7 -1 -4 -1 -5 9
-2 -3 -3 -0 1 1 -2 -5 -2 -6 -6 -4 -9 -8 -4 -3 -2 -8 -3 -4 6 2 -2 -3 -4 -10 1 2 1 -1 0 7 -7 -0 3 -2 -4 1 -1 5 5 3 3
2 0 1 -0 -1 -3 -6 -4 -6 -10 -7 -7 -1 -3 -4 -1 2 2 4 -0 -0 -1 2 -0 -6 -6 -5 3 -5 -5 -7 5 3 2 -1 -0 -3 -2 2 4 0 1 0
-4 -5 -4 -0 -3 -3 -0 -4 -11 -9 -4 -4 -5 0 1 2 -1 6 -0 -0 6 3 -2 3 -5 -9 -6 1 -2 -8 -8 -5 -1 -8 2 1 -3 2 0 1 4 7 3
-5 -2 -4 -6 -6 -5 -3 1 -1 -2 -6 -4 -1 -1 -4 -3 -4 -6 -4 10 4 3 4 9 5 -2 -6 -3 2 -1 -0 1 -2 -0 -1 -3 1 2 6 6 -2 4 -1
Height
3113 3111 3110 3110 3109 3108 3107 3107 3108 3108 3108 3107 3107 3107 3107 3107 3106 3105 3105 3103 3102 3100 3098 3097 3096 3094 3092 3091 3089 3087 3086 3084 3082 3078 3077 3074 3073 3071 3070 3069 3068 3068 3067
3109 3109 3108 3107 3106 3105 3104 3102 3102 3102 3101 3102 3103 3103 3103 3102 3102 3101 3100 3099 3097 3095 3092 3091 3090 3088 3086 3086 3084 3082 3079 3078 3076 3071 3069 3065 3066 3064 3062 3061 3060 3059 3058
3108 3107 3106 3105 3103 3102 3100 3098 3097 3097 3097 3098 3098 3098 3098 3097 3096 3096 3094 3093 3092 3090 3087 3085 3083 3082 3080 3080 3078 3076 3073 3070 3069 3066 3063 3058 3055 3056 3054 3052 3051 3051 3049
3106 3105 3103 3102 3100 3098 3097 3094 3093 3092 3093 3094 3094 3094 3093 3091 3092 3091 3089 3087 3085 3084 3081 3079 3076 3075 3073 3073 3072 3069 3067 3064 3062 3058 3056 3054 3052 3046 3042 3042 3042 3041 3041
3103 3102 3101 3099 3098 3096 3094 3092 3090 3089 3089 3089 3089 3088 3087 3087 3086 3084 3081 3079 3077 3076 3075 3073 3070 3068 3066 3066 3065 3062 3060 3058 3055 3055 3049 3045 3044 3042 3037 3033 3034 3032 3031
3102 3100 3098 3097 3095 3093 3091 3090 3088 3086 3086 3085 3084 3083 3081 3080 3078 3077 3073 3072 3069 3068 3067 3066 3063 3061 3058 3058 3057 3055 3052 3051 3048 3046 3043 3037 3034 3032 3029 3026 3025 3023 3023
3101 3100 3098 3096 3094 3092 3090 3088 3087 3085 3084 3082 3081 3079 3077 3076 3073 3072 3069 3067 3065 3064 3062 3059 3057 3054 3052 3051 3049 3046 3044 3042 3039 3037 3034 3030 3027 3023 3019 3016 3015 3011 3013
3099 3097 3095 3094 3092 3090 3088 3086 3084 3082 3080 3078 3076 3074 3071 3069 3066 3064 3062 3060 3057 3055 3053 3050 3049 3047 3044 3042 3040 3037 3035 3033 3030 3028 3026 3022 3020 3016 3013 3008 3005 3001 3000
3095 3093 3091 3090 3088 3086 3084 3082 3080 3078 3076 3073 3071 3069 3066 3064 3061 3058 3055 3053 3051 3048 3046 3043 3041 3039 3037 3034 3031 3027 3026 3022 3019 3018 3017 3013 3011 3007 3005 3001 2997 2993 2990
3090 3088 3086 3085 3083 3081 3080 3078 3075 3073 3070 3068 3065 3063 3060 3057 3054 3051 3048 3045 3043 3040 3038 3036 3033 3030 3027 3025 3021 3017 3016 3012 3009 3007 3005 3004 3003 2998 2995 2993 2989 2984 2981
3086 3083 3081 3079 3075 3072 3070 3068 3065 3063 3060 3058 3055 3053 3051 3048 3045 3042 3039 3036 3035 3032 3028 3026 3023 3020 3017 3015 3011 3007 3005 3001 2998 2995 2992 2992 2991 2988 2986 2983 2980 2976 2972
3080 3077 3074 3072 3068 3066 3063 3061 3057 3055 3052 3049 3046 3043 3039 3036 3033 3031 3028 3024 3022 3020 3016 3014 3012 3009 3006 3003 3000 2996 2994 2989 2985 2983 2980 2979 2979 2976 2975 2973 2969 2967 2963
3077 3072 3068 3066 3063 3060 3057 3055 3051 3048 3045 3042 3039 3036 3032 3027 3023 3020 3017 3015 3009 3006 3003 3000 2998 2995 2993 2990 2988 2985 2981 2977 2972 2970 2968 2965 2965 2962 2962 2960 2958 2955 2954
3066 3064 3061 3057 3055 3051 3048 3046 3044 3040 3036 3032 3027 3026 3022 3017 3013 3010 3007 3003 2999 2994 2990 2987 2984 2982 2978 2976 2974 2971 2966 2961 2958 2955 2954 2951 2951 2948 2949 2947 2946 2944 2941
3059 3057 3054 3051 3048 3045 3041 3038 3036 3032 3027 3022 3016 3013 3010 3005 3001 2998 2994 2990 2986 2982 2977 2974 2971 2968 2964 2962 2960 2957 2951 2946 2943 2942 2940 2939 2939 2937 2935 2935 2933 2933 2929
3051 3048 3046 3044 3042 3039 3034 3030 3025 3020 3015 3010 3005 3001 2998 2995 2991 2987 2983 2978 2974 2969 2964 2960 2956 2952 2949 2948 2946 2943 2936 2933 2929 2927 2928 2927 2927 2925 2922 2921 2921 2920 2917
3044 3040 3038 3035 3031 3028 3024 3019 3014 3009 3005 3001 2996 2991 2986 2982 2978 2973 2969 2964 2961 2957 2953 2950 2946 2942 2938 2936 2932 2928 2922 2919 2918 2916 2914 2913 2912 2911 2910 2909 2907 2905 2903
3034 3032 3028 3024 3020 3015 3013 3007 3005 3000 2996 2992 2988 2984 2977 2972 2967 2962 2957 2952 2947 2942 2938 2935 2931 2928 2925 2922 2919 2914 2909 2905 2904 2903 2901 2898 2897 2897 2897 2895 2892 2890 2889
3027 3022 3017 3014 3009 3005 3001 2997 2993 2989 2985 2980 2977 2972 2966 2961 2956 2951 2947 2942 2937 2933 2930 2925 2921 2916 2913 2910 2906 2900 2896 2893 2891 2889 2887 2886 2884 2885 2882 2879 2876 2875 2874
3015 3011 3008 3005 3001 2997 2993 2989 2984 2979 2974 2969 2964 2959 2954 2949 2944 2940 2936 2932 2928 2923 2919 2914 2911 2906 2902 2898 2894 2889 2883 2878 2876 2875 2874 2871 2870 2869 2868 2866 2863 2860 2862
3007 3003 2999 2996 2992 2988 2984 2979 2974 2969 2965 2959 2954 2949 2944 2938 2934 2929 2925 2920 2916 2912 2909 2904 2900 2896 2890 2886 2883 2878 2872 2867 2861 2858 2858 2857 2853 2854 2855 2855 2850 2850 2850
3000 2996 2993 2989 2984 2979 2974 2969 2965 2959 2953 2947 2940 2935 2931 2927 2922 2917 2913 2908 2903 2898 2894 2889 2886 2884 2879 2874 2871 2867 2863 2858 2851 2846 2844 2844 2843 2842 2842 2841 2841 2838 2840
2989 2986 2983 2979 2975 2969 2964 2959 2953 2948 2942 2935 2929 2925 2919 2915 2910 2905 2901 2896 2892 2886 2882 2876 2871 2869 2867 2862 2859 2856 2852 2848 2842 2838 2833 2831 2831 2831 2830 2831 2829 2830 2832
2980 2977 2973 2969 2966 2961 2956 2951 2944 2938 2931 2925 2918 2913 2906 2900 2895 2891 2887 2882 2878 2873 2869 2865 2861 2856 2854 2850 2848 2845 2841 2837 2833 2828 2822 2820 2819 2820 2821 2822 2821 2822 2824
2970 2968 2965 2961 2958 2953 2947 2940 2933 2926 2919 2913 2907 2901 2893 2887 2881 2877 2873 2869 2865 2862 2856 2854 2850 2846 2843 2841 2838 2835 2830 2825 2821 2815 2811 2810 2809 2810 2811 2812 2812 2813 2815
2963 2960 2957 2953 2948 2942 2936 2930 2922 2915 2908 2901 2895 2889 2882 2876 2871 2865 2860 2859 2853 2849 2847 2845 2841 2839 2836 2832 2830 2828 2824 2819 2814 2808 2803 2802 2800 2800 2802 2802 2803 2805 2806